Dewpoint
35 31 29 32 35 30 33 26 20 19 28 29 31 28 28 33 34 33 32 32 33 36 39 40 43 55 58 60 60 61 63 64 66 66 66 65 64 65 64 64 64 63 62 62
30 27 29 32 33 35 33 30 22 18 30 30 30 29 28 31 33 33 32 30 32 34 37 39 41 46 58 59 61 61 60 62 65 66 66 65 65 66 66 66 65 65 65 64
26 28 28 30 34 32 32 29 25 19 30 32 30 27 28 29 31 32 32 31 31 31 35 38 40 42 55 59 60 60 59 59 63 65 66 65 65 65 65 66 66 66 65 65
29 30 30 32 33 32 30 28 28 23 28 22 29 22 23 26 28 29 32 31 32 32 36 39 40 42 42 44 55 60 60 62 64 65 64 63 62 59 62 62 64 65 66 65
30 30 28 29 31 33 33 35 26 28 26 24 26 22 18 23 26 28 30 30 31 34 38 39 41 43 43 42 43 47 58 61 63 64 64 63 61 62 62 63 64 64 65 65
32 37 34 33 32 33 36 34 34 29 27 25 23 20 13 23 24 26 28 29 30 33 38 39 41 41 42 44 44 45 47 54 60 63 63 60 59 59 61 62 62 63 64 64
31 33 37 37 32 34 33 32 26 23 24 16 18 22 18 21 24 24 27 29 30 33 36 38 40 40 40 43 44 44 43 45 48 54 58 61 62 61 60 60 60 60 61 62
22 23 33 36 33 31 31 32 25 17 18 16 22 17 18 21 23 26 27 28 29 32 34 35 37 40 40 42 43 42 43 43 43 44 46 46 46 46 49 48 46 48 49 51
23 26 35 33 34 33 31 28 30 24 17 16 18 17 22 24 25 27 27 28 29 31 33 34 36 36 39 42 43 42 42 44 44 44 45 45 45 46 46 48 48 49 50 51
32 25 29 34 33 34 32 34 26 27 17 13 15 10 14 21 23 25 26 27 29 29 30 31 35 36 39 41 42 43 43 43 44 45 44 45 45 45 46 47 48 49 49 50
32 31 29 32 29 29 30 30 33 28 27 14 15 12 21 21 23 23 24 25 26 29 30 31 32 35 38 41 43 43 43 44 44 44 43 43 42 42 43 43 43 44 44 45
33 32 27 30 34 31 33 31 28 24 23 24 24 17 23 25 26 26 27 31 32 33 34 34 33 38 40 42 42 42 43 43 42 41 41 41 41 41 40 40 40 40 41 41
35 31 26 27 32 35 32 33 34 28 30 25 21 17 22 26 26 26 27 31 34 36 38 37 38 39 40 41 42 42 42 41 40 40 40 40 40 39 39 38 38 38 39 39
38 34 29 24 26 29 30 32 29 31 25 21 22 20 21 22 25 25 27 30 34 37 38 38 38 39 40 41 41 41 40 40 40 39 39 38 38 38 38 38 37 37 38 38
37 32 28 27 28 28 31 31 29 28 27 24 23 23 21 22 25 25 27 31 34 37 38 38 38 39 39 40 41 40 40 39 39 39 39 38 38 38 37 37 37 37 37 37
35 30 27 27 28 28 28 29 30 29 28 27 26 26 27 27 27 26 26 30 33 36 39 39 39 39 39 40 40 40 39 39 39 38 38 38 37 37 38 37 37 37 37 37
30 28 27 25 25 25 24 27 29 29 30 29 27 28 28 27 27 28 28 30 32 35 38 39 39 39 39 39 39 39 39 38 38 38 37 37 37 37 38 37 37 37 37 38
27 25 24 20 21 15 21 25 27 28 27 29 29 29 29 29 30 31 30 29 29 34 37 39 40 40 40 40 39 39 38 38 38 37 37 37 37 37 38 38 38 38 38 37
29 26 22 20 16 19 26 28 26 26 27 30 30 30 30 31 31 31 32 32 31 31 37 38 40 41 41 40 39 38 38 38 38 37 37 37 37 37 37 37 38 37 36 36
28 28 25 22 18 11 24 28 30 29 26 33 33 32 31 31 29 30 34 35 33 33 39 39 41 41 42 41 39 38 38 37 38 38 37 38 38 37 37 37 37 36 36 35
24 25 23 21 20 18 24 29 31 26 31 35 36 32 30 30 32 34 34 35 36 37 37 38 41 42 42 41 39 38 38 38 38 38 38 38 38 38 37 37 36 35 34 34
22 20 20 22 20 17 26 32 28 31 34 37 37 32 32 35 36 36 36 36 37 37 37 39 39 40 40 40 39 39 39 40 39 38 38 37 38 37 37 36 35 34 33 32
22 23 23 23 22 25 25 27 30 32 33 37 37 35 34 35 36 36 36 36 36 36 36 37 38 38 38 39 39 39 39 39 38 37 37 37 37 36 35 35 33 32 31 30
26 27 24 25 26 27 28 30 31 31 36 37 38 38 38 37 37 37 37 37 36 35 35 36 36 36 36 37 37 37 38 37 36 36 36 36 36 35 34 34 33 31 30 29
29 28 26 25 27 29 31 33 32 36 38 37 38 38 39 39 38 38 38 37 37 36 35 35 35 35 35 35 35 35 35 35 35 35 35 35 35 35 34 33 32 32 31 30
29 29 27 31 29 29 29 31 36 36 37 38 37 36 37 37 37 37 37 38 37 37 36 35 35 36 36 35 35 35 35 35 35 35 35 35 34 34 33 32 32 35 34 34
Wind_Speed
3 5 15 21 19 13 5 29 23 30 21 25 24 28 17 11 17 21 22 21 22 20 21 21 14 16 19 15 14 17 18 15 11 11 13 12 13 11 8 7 7 7 9 11
3 14 16 12 17 13 11 16 25 27 19 23 22 24 21 17 17 19 19 20 18 20 19 22 15 13 18 16 15 14 16 17 16 13 12 8 13 9 7 5 8 9 9 9
11 6 12 14 14 10 14 18 25 29 15 15 14 21 22 21 21 17 16 18 20 20 18 22 16 12 13 15 14 15 12 14 16 15 11 5 8 7 7 9 8 9 8 9
10 7 12 16 9 12 13 17 17 22 19 16 17 10 23 25 26 24 21 22 19 18 16 18 17 13 11 10 9 11 14 7 7 14 12 15 11 9 9 8 7 9 10 10
3 5 13 17 15 15 5 16 10 18 19 15 17 11 19 30 28 25 24 23 21 19 18 24 20 15 13 10 9 11 15 14 10 10 8 9 8 6 6 5 3 6 6 9
5 3 1 4 13 15 5 6 12 12 13 11 16 21 15 16 21 23 21 22 21 20 18 21 17 14 11 11 11 7 10 12 11 8 11 7 11 8 6 4 4 8 4 5
2 3 5 11 10 5 0 8 7 6 7 10 19 17 4 8 4 13 21 21 21 20 20 20 20 15 14 14 12 9 9 8 8 13 8 7 11 8 9 10 15 12 9 7
4 3 5 8 1 5 5 2 4 8 13 18 4 10 10 11 7 8 7 6 16 21 20 22 23 20 17 13 14 14 11 12 10 6 7 6 5 2 4 8 2 4 4 3
4 5 8 3 3 8 4 7 7 6 3 11 10 8 8 6 6 6 9 9 9 10 12 17 16 17 15 13 11 13 14 9 9 9 8 5 5 7 5 3 4 4 2 2
4 6 9 9 7 2 4 8 3 3 6 6 6 13 8 10 9 8 7 14 13 10 11 12 17 16 10 12 12 11 14 12 8 8 7 6 5 5 5 4 3 2 2 2
0 2 4 9 8 11 6 4 8 5 3 6 9 7 11 11 8 6 2 3 6 8 9 10 9 11 11 11 10 10 11 17 11 9 8 7 7 6 5 5 4 3 2 1
4 2 6 3 5 7 4 7 9 5 4 2 3 6 8 12 8 8 7 3 3 4 6 7 11 11 12 11 12 13 13 13 11 11 10 8 7 7 6 4 3 2 3 2
7 3 5 6 4 2 5 8 8 2 2 1 5 8 9 6 3 7 6 4 4 5 7 9 10 12 13 14 14 13 13 13 12 11 10 10 7 6 5 5 3 3 1 2
6 1 4 4 5 11 7 13 14 3 2 3 5 6 7 6 3 5 7 2 2 6 8 10 12 12 13 14 14 13 12 11 11 10 9 8 7 6 4 4 3 3 2 1
3 2 2 4 5 6 9 14 15 11 8 6 5 8 6 3 1 3 4 2 3 5 9 11 12 13 14 13 13 12 11 12 11 10 9 8 6 5 5 4 4 3 3 2
3 2 2 3 3 1 4 6 12 10 13 15 16 21 13 11 11 12 7 3 3 7 9 10 11 11 12 12 11 11 11 10 9 9 8 7 6 5 5 4 4 3 1 1
3 1 2 3 3 3 3 7 10 8 7 13 15 12 9 7 7 3 3 2 3 7 11 12 13 12 12 12 12 12 11 10 9 8 8 8 7 6 5 5 3 2 2 0
6 3 1 1 3 5 4 2 1 9 6 9 13 12 13 13 9 7 7 5 5 4 11 13 12 12 11 11 11 11 12 12 11 10 9 8 8 7 6 5 4 3 2 1
3 5 2 2 2 6 4 4 2 3 3 1 5 7 8 7 8 14 11 4 6 6 8 12 13 11 11 12 12 12 12 12 11 11 11 10 9 8 7 6 5 4 4 4
3 4 5 1 2 2 7 3 0 2 5 0 5 8 10 4 5 7 8 6 4 1 2 6 9 9 11 12 13 14 14 13 13 11 9 9 9 8 8 7 6 5 4 5
2 3 7 5 3 2 3 3 2 4 3 3 5 8 5 3 5 6 6 5 5 4 3 3 3 6 7 9 12 13 12 12 10 9 9 9 9 8 7 6 5 7 7 7
2 2 3 2 2 3 3 3 3 6 3 3 4 4 3 3 3 4 5 5 5 6 6 5 4 4 2 4 9 10 10 8 9 10 10 10 9 8 7 8 7 8 9 9
2 2 4 3 4 3 1 4 4 4 6 3 4 4 2 1 3 3 4 5 6 6 5 5 4 4 3 3 6 7 7 10 10 10 10 10 9 9 9 10 10 10 10 10
2 1 3 3 4 3 3 3 2 2 2 2 2 2 2 5 4 5 5 5 6 6 5 4 3 3 2 3 3 4 6 8 9 9 9 9 9 9 9 8 9 10 11 11
4 2 4 7 0 3 6 8 6 1 1 2 3 4 5 6 5 4 5 5 4 4 4 4 3 1 1 3 3 3 4 7 8 8 8 8 9 11 10 9 11 11 12 14
3 4 4 1 8 7 6 11 7 3 2 3 4 5 7 6 5 4 5 6 6 6 4 3 3 3 3 3 4 5 5 7 8 8 8 8 9 9 10 9 8 12 11 15
Wind_Direction
350 272 209 213 210 206 318 211 204 200 183 201 211 212 202 209 210 214 217 214 222 217 223 194 184 170 159 176 189 194 186 193 176 201 200 209 210 217 212 190 218 239 213 205
193 238 233 230 210 224 249 236 214 195 170 188 212 207 220 188 210 217 217 220 213 227 219 200 178 182 161 170 184 188 195 186 178 185 190 190 193 209 215 210 214 228 236 232
256 261 236 205 189 163 228 226 204 190 159 187 210 224 217 225 229 215 225 231 229 225 218 207 169 175 161 165 182 185 202 183 182 184 165 173 128 125 183 209 217 223 248 256
267 249 213 182 164 162 238 206 208 198 176 194 214 218 218 225 226 226 225 225 227 232 220 215 174 176 165 161 180 175 155 178 197 178 181 181 187 180 207 179 188 206 207 229
258 213 189 188 185 167 267 329 197 190 189 191 195 238 251 196 216 217 217 222 219 222 221 212 190 177 168 175 183 196 161 169 185 201 193 213 191 187 181 132 165 219 186 196
253 358 286 181 158 185 49 239 223 181 197 208 195 207 229 194 221 213 215 212 217 211 211 200 166 174 173 153 184 193 165 167 167 204 196 236 244 190 150 131 269 264 262 196
151 64 80 121 102 71 180 185 149 159 196 217 209 192 225 92 156 219 210 213 211 210 205 209 199 174 184 178 169 174 179 158 171 189 191 207 239 192 208 193 218 246 232 247
139 148 151 160 48 140 181 217 191 173 189 186 154 220 219 247 252 186 242 254 218 205 211 212 215 189 184 186 174 159 168 157 164 164 168 158 172 134 191 159 174 220 247 285
129 109 120 152 112 136 149 231 316 311 176 172 172 237 277 198 213 219 211 212 220 225 235 216 217 217 184 185 189 165 148 147 146 148 138 125 165 151 119 81 134 191 182 243
11 109 142 126 107 110 253 331 232 242 165 180 176 202 102 175 174 180 206 207 202 206 209 222 227 221 179 188 171 162 141 130 142 140 145 139 106 95 116 113 120 124 117 195
305 305 137 149 203 178 149 247 233 276 271 229 149 172 102 113 105 108 135 216 229 223 208 213 202 215 187 171 164 158 140 126 139 136 134 131 121 106 98 105 108 97 107 336
210 294 148 176 139 192 156 234 229 240 192 320 304 97 140 119 89 48 58 111 160 208 192 195 182 168 163 166 161 157 141 142 135 131 135 133 131 130 123 118 99 64 40 4
161 188 131 118 122 88 196 222 217 276 316 73 322 134 164 143 32 50 23 43 134 153 158 158 164 167 169 168 167 160 152 144 140 137 142 143 141 131 137 122 103 84 59 34
353 3 341 83 90 134 182 194 202 207 276 337 288 110 173 201 245 18 19 28 127 161 156 157 159 164 162 164 161 155 146 143 140 144 147 141 136 132 125 108 96 82 57 50
335 317 57 48 71 91 156 179 189 202 215 229 302 261 265 332 301 339 350 65 155 178 168 166 163 163 163 163 161 156 151 152 154 153 149 137 130 118 120 106 87 76 67 40
251 313 168 64 61 67 104 172 198 224 232 242 258 279 300 296 298 288 257 9 211 201 193 177 176 172 172 171 167 161 157 156 155 153 147 142 141 139 129 126 115 100 79 81
264 229 232 116 167 157 198 221 204 214 232 236 242 258 318 290 294 340 252 285 264 214 198 193 187 187 180 179 175 173 167 160 168 165 160 163 161 162 159 152 146 151 147 131
309 275 276 100 186 203 96 94 278 225 245 250 267 286 288 284 286 298 306 300 303 230 206 198 198 192 187 181 178 173 167 170 173 175 176 178 177 175 174 182 181 184 178 195
279 299 295 280 227 124 150 116 156 223 124 359 283 302 308 299 280 271 250 286 292 295 216 202 197 192 184 186 181 180 177 178 177 186 185 186 188 186 188 190 203 194 180 173
295 265 278 317 255 180 95 108 347 258 189 165 302 317 324 308 273 88 22 358 354 292 274 193 188 188 191 191 183 187 189 188 190 195 189 187 190 194 196 201 186 170 186 175
239 253 246 252 309 73 79 91 165 231 89 35 344 340 340 340 3 9 17 33 47 61 65 14 155 190 204 186 188 199 194 197 180 182 176 182 185 193 188 178 169 176 171 167
292 262 229 211 237 230 128 153 292 36 34 2 12 356 326 11 33 35 39 48 50 58 62 58 107 112 117 160 192 196 195 153 159 171 176 180 182 184 184 182 180 177 172 174
263 328 350 300 52 76 107 311 331 324 319 348 350 19 7 355 30 26 53 54 53 52 63 62 83 103 115 172 203 197 188 169 171 175 183 185 188 194 193 188 180 176 178 181
235 313 263 308 93 36 352 326 325 298 316 62 77 93 107 93 70 63 58 48 45 38 46 53 81 106 141 163 186 199 168 177 178 189 194 194 198 201 199 189 183 183 185 191
315 300 280 260 108 93 96 30 353 326 105 114 88 70 77 83 54 45 49 39 34 18 17 21 12 354 158 161 180 166 168 177 194 205 204 200 210 205 199 198 194 200 203 196
271 334 283 24 26 340 350 352 344 294 164 129 122 92 65 75 73 69 60 40 33 29 16 360 327 297 285 227 195 188 189 191 202 209 210 211 213 213 200 197 210 218 213 212